Location: Gellin
(53.4498°N, 14.3207°E)
Time: 22:24:32
(UTC+00:00)

Cosmos 2221 Rocket - Pass Details

Date: 03 March 2021
Orbit: 621 x 647 km, 82.5° (Epoch: 12 April)

Event Time Altitude Azimuth Distance (km) Brightness Sun altitude
Rises 18:38:33 0° 352° (N) 2,916 7.3 -17.7°
Reaches altitude 10° 18:40:53 10° 359° (N) 2,005 6.3 -18.0°
Maximum altitude 18:45:08 44° 72° (ENE) 876 3.9 -18.6°
Enters shadow 18:45:43 41° 95° (E) 910 3.9 -18.7°
